This is the latest recevied weather packets stored in our database for station/object EA7AIS-10. If no packets are shown the sender has not sent any weather packets the latest 10 day(s).
| Time | Temp. | Humidity | Pressure | Rain* | Wind** | Luminosity | Snow |
|---|---|---|---|---|---|---|---|
| 1777756582 | 18.33° C | 92% | 1014.4 hPa | - | - | - | - |
| 1777755682 | 18.33° C | 91% | 1014.2 hPa | - | - | - | - |
| 1777754782 | 18.33° C | 91% | 1014.2 hPa | - | - | - | - |
| 1777753882 | 18.33° C | 90% | 1014.2 hPa | - | - | - | - |
| 1777752982 | 18.33° C | 89% | 1014 hPa | - | - | - | - |
| 1777752082 | 18.33° C | 88% | 1013.8 hPa | - | - | - | - |
| 1777751182 | 18.89° C | 86% | 1013.7 hPa | - | - | - | - |
| 1777750282 | 18.89° C | 85% | 1013.5 hPa | - | - | - | - |
| 1777749382 | 18.89° C | 85% | 1013.4 hPa | - | - | - | - |
| 1777748481 | 19.44° C | 84% | 1013.4 hPa | - | - | - | - |
| 1777747581 | 19.44° C | 81% | 1013.4 hPa | - | - | - | - |
| 1777746682 | 20° C | 80% | 1013.5 hPa | - | - | - | - |
| 1777745781 | 20.56° C | 79% | 1013.5 hPa | - | - | - | - |
| 1777744881 | 20.56° C | 78% | 1013.6 hPa | - | - | - | - |
| 1777743981 | 20.56° C | 76% | 1013.7 hPa | - | - | - | - |
| 1777743082 | 21.11° C | 76% | 1013.6 hPa | - | - | - | - |
| 1777742181 | 21.11° C | 76% | 1013.7 hPa | - | - | - | - |
| 1777741281 | 20.56° C | 77% | 1013.9 hPa | - | - | - | - |
| 1777740381 | 21.11° C | 75% | 1013.9 hPa | - | - | - | - |
| 1777739481 | 20.56° C | 78% | 1014 hPa | - | - | - | - |
| 1777738581 | 20.56° C | 78% | 1014.1 hPa | - | - | - | - |
| 1777737681 | 21.11° C | 76% | 1014.3 hPa | - | - | - | - |
| 1777736781 | 21.11° C | 75% | 1014.2 hPa | - | - | - | - |
| 1777735881 | 21.11° C | 73% | 1014.3 hPa | - | - | - | - |
| 1777734980 | 21.67° C | 72% | 1014.5 hPa | - | - | - | - |
* Rain since midnight (hover to see other rain measurements)
** Current wind speed in m/s (hover to see current wind gust speed)